ایروان, ارمنستان

06:12 PM +04 on ژوئیه 27, 2017 (GMT +0400)
Zvartnots | | Change Station

Elev 2838 ft 40.15 °N, 44.40 °E | Updated 42 minutes ago

صاف
صاف
99 °F
Feels Like 99 °F
N
5
باد متغير باد from جنوب

امروز
High -- | Low -- °F
--% Chance of Precip.
دیروز
High -- | Low -- °F
Precip. -- در
فشار 29.74 در
ديد 6.2 مايل، ميل (در برابر كيلومتر
ابری
قطره شبنم 43 °F
رطوبت 15%
بارش باران 0.00 در
برف عمیق Not available.
5:54 AM 8:20 PM
Waxing Crescent, 21% visible
METAR UDYZ 271330Z 17004KT 9999 NSC 37/06 Q1007 R09/0///70 NOSIG
فشار 29.74 در
ديد 6.2 مايل، ميل (در برابر كيلومتر
ابری
قطره شبنم 43 °F
رطوبت 15%
بارش باران 0.00 در
برف عمیق Not available.
5:54 AM 8:20 PM
Waxing Crescent, 21% visible
METAR UDYZ 271330Z 17004KT 9999 NSC 37/06 Q1007 R09/0///70 NOSIG

Get Severe Weather Alerts

Thanks for signing up!

Be on the lookout for a verification email in your inbox.

You'll start receiving the daily forecast at 6 AM.

×

10-Day Weather Forecast

×

Almanac

ستاره شناسی

Jul. 27, 2017 Rise Set
وقت حقیقی
تاریک و روشن اجتماعی
تاریک روشن دریایی
شفق و فلق نجومی
ماه
میزان روشنایی روز
طول روز
Tomorrow will be .
, % of the Moon is Illuminated

Today's Extremes

Country Highs Country Lows

Community

WunderPhotos

Category 6

Welcome to Category 6. This is the collective home for Weather Underground's featured writeups by Dr. Jeff Masters (right), Bob Henson (left), Chris Burt, and other regular contributors.

Nearby

تمیزی هوا

  تمیزی هوا AQ Index آلاینده
Not available.

عمق برف

Station Depth Elevation

Earthquake Activity

شهر Distance Mag. Time & Date
Minimum magnitude displayed is 2.5.

Coastal Water Temperatures

منطقه درجه حرارت

Stations

Nearby Weather Stations

Station Location دما باد سرد قطره شبنم رطوبت باد Precip. Elev ارتقا دادن Type